Location: ?????
(37.7324°N, 23.9257°E)
Time: 07:59:51
(UTC+00:00)

NOAA 6 - Pass Details

Date: 29 November 2020
Orbit: 772 x 787 km, 98.7° (Epoch: 17 January)

Event Time Altitude Azimuth Distance (km) Brightness Sun altitude
Rises 04:26:37 0° 12° (NNE) 3,256 7.2 -10.4°
Reaches altitude 10° 04:28:56 10° 11° (NNE) 2,324 6.4 -9.9°
Maximum altitude 04:34:03 82° 284° (WNW) 784 4.0 -9.0°
Drops below altitude 10° 04:39:09 10° 198° (SSW) 2,310 6.5 -8.0°
Sets 04:41:27 0° 197° (SSW) 3,235 7.3 -7.6°
